Погода в Барановичах

Беларусь     53°07′56″N   26°01′03″E
темп.,
°C
ветер,
м/с
пор.,
м/с
влажн.,
%
обл.,
%
осадки,
мм/ч
давл.,
гПа
погр.,
м
15 апреля, чт
чт1500:00+7всв4798100 0.8 1014367
03:00+7в2599100 1.4 1015216
06:00+6в2398100 0.5 1015107
09:00+7св2598100 0.7 1016247
12:00+8ссв4690100 0.1 1016464
15:00+8с5787100 0.1 1015554
18:00+5с5895100 3.9 1015392
21:00+5с51095100 4.8 1015451
16 апреля, пт
пт1600:00+5с61196100 2.1 1013424
03:00+5ссв61297100 2.9 1012487
06:00+6ссв51098100 0.4 1012369
09:00+8св499324 0.5 1012474
12:00+12всв686974 0.5 10121219
15:00+13всв6864100 1.4 10121359
18:00+12в69705 1.4 10131195
21:00+8всв49886 1.7 1015258
17 апреля, сб
сб1700:00+6всв349326 0.0 101683
03:00+6св379771 0.1 1017185
06:00+4всв369782 0.0 1018127
09:00+7в3593100 0.0 1020295
12:00+8в3581100 0.0 1021456
15:00+12всв456468 0.2 10201249
18:00+12в3567100 0.7 1020931
21:00+9св1178100 0.9 102010
18 апреля, вс
вс1800:00+8св2393100 1.7 102199
03:00+8с2498100 4.2 1020142
06:00+8св51094100 1.6 1019471
09:00+8всв51089100 1.6 1020494
12:00+11в6975100 0.0 1020990
15:00+11всв4878100 0.1 1021850
18:00+12в5877100 0.5 1021710
21:00+10в41086100 0.6 1022426
19 апреля, пн
пн1900:00+9в41087100 0.1 1022363
03:00+8в3690100 0.2 1023163
06:00+8в4118640 0.1 1023459
09:00+9в4107595 0.1 1023502
12:00+12в695963 0.1 10221757
15:00+12в6960100 0.1 10221655
18:00+12вюв5865100 0.0 10211388
21:00+7всв5117896 0.1 1021315